Showing default

MICROSCOPE, 41457

Orbit data source: Space-Track

MICROSCOPE, 41457 is a payload satellite owned by CNES (FR) in SSO that was launched on Mon, 25 Apr 2016 UTC via a SOYUZ-ST-A launch vehicle from the French Guiana (FRGUI). Payloads include a variety of satellites, spacecraft, and rockets equipped with specific instruments for various scientific and technological missions. These include communications satellites like Starlink; space stations such as the ISS; scientific satellites like the Hubble; Earth observation satellites from companies like Planet Labs, Umbra, and HawkEye 360; GPS; miniature CubeSats for education and research; and military/defense satellites.

Loading next visibility...
MICROSCOPE details
Identifier
41457, 2016-025B
Orbit
SSO
Last TLE update8 hours ago
Origin
Flag of FRCNES (FR)
ManufacturerONERA/CNES
MissionNon-operational Civil Science
Bus & MotorMYRIADE, Unknown motor
Mass303 kg wet, 303 kg dry
Launch date (UTC)
2016-04-25 (9 years ago)
Launch vehicle
SOYUZ-ST-A
Launch site
French Guiana (FRGUI)
Object type
Payload
Rocket body
Debris
Shape & HBRBox + 2 Pan, 1.3 m
Radar Cross Section2.015 m², Large (>1 m²)

Expand to show TLE details & history

TLE from 8 hours ago
0 MICROSCOPE
1 41457U 16025B   24346.57374581  .00002353  00000-0  52407-3 0  9998
2 41457  98.2553 351.8428 0001811  93.9308 266.2098 14.57834687458158
Epoch: 2024-12-11T13:46Z
Definitive object data (Epoch: 2024-12-11T13:46:11.637Z)
Latitude-0.00003°
Longitude64.52783°
Altitude703.24 km
Speed7.504 km/s
True Right ascension23h 27m 22s
True Declination0° 00' 00"
Sunlit
Object was in daylight at TLE epoch
Visualization TLE readout
Latitude-13.47529°
Longitude66.84737°
Altitude706.229 km
Speed7.502 km/s
Apparent Right ascension02h 37m 16s
Apparent Declination-47° 36' 08"
Sunlit
Object is in daylight
Visualization observer readout
Local Sidereal Time20:20:35
Azimuth128.5° SE
Elevation-30.763°
Doppler factor1
Orbital elements
Apogee altitude698.542 km
Perigee altitude695.98 km
Semi-major axis7,075.398 km
Eccentricity0.0001811
Inclination98.2553°
RAAN351.8428°
Arg. of periapsis93.9308°
True anomaly266.18909°
Mean anomaly266.2098°
Eccentric anomaly266.19945°
Mean motion3.64684 °/min
BSTAR0.00052407
Orbital period98.72 mins
Loading maneuver chart data...
Loading historical data...
Loading historical data...
Loading historical data...
Loading historical data...
Loading historical data...
Loading historical data...
Loading historical data...

MICROSCOPE Visibility forecast

Observer location: undefined°, undefined

Span
Click to sort rows by Start time (UTC) header in descending order
Start Az.
Max El. time (UTC)
Max El. Az.
Max El.
End time (UTC)
End Az.
7 mins2024-12-11 23:47:39.078Z124.232° SE2024-12-11 23:50:39.078Z77.194° E26.756°2024-12-11 23:54:39.078Z11.067° NNE
5 mins2024-12-12 01:26:39.078Z227.305° WSW2024-12-12 01:28:39.078Z264.586° W23.831°2024-12-12 01:31:39.078Z313.55° NW
8 mins2024-12-12 13:24:39.078Z15.967° NNE2024-12-12 13:28:39.078Z165.738° S43.593°2024-12-12 13:32:39.078Z190.807° SSW
|